Time,TemperatureF,DewpointF,PressureIn,WindDirection,WindDirectionDegrees,WindSpeedMPH,WindSpeedGustMPH,Humidity,HourlyPrecipIn,Conditions,Clouds,dailyrainin,SoftwareType,DateUTC
2013-04-27 00:02:00,54.0,36.0,30.08,North,8,0.0,1.0,51,0.00,,,0.01,,2013-04-27 05:02:00,
2013-04-27 00:12:00,54.0,36.0,30.08,North,8,0.0,1.0,51,0.00,,,0.01,,2013-04-27 05:12:00,
2013-04-27 00:22:00,54.0,36.0,30.08,North,8,0.0,1.0,51,0.00,,,0.01,,2013-04-27 05:22:00,
2013-04-27 00:32:00,53.0,37.0,30.08,North,8,0.0,0.0,55,0.00,,,0.01,,2013-04-27 05:32:00,
2013-04-27 00:42:00,53.0,37.0,30.08,North,8,0.0,0.0,55,0.00,,,0.01,,2013-04-27 05:42:00,
2013-04-27 00:52:00,51.0,39.0,30.09,WSW,250,1.0,1.0,63,0.00,,,0.01,,2013-04-27 05:52:00,
2013-04-27 01:02:00,51.0,38.0,30.08,West,281,1.0,2.0,60,0.00,,,0.01,,2013-04-27 06:02:00,
2013-04-27 01:12:00,51.0,38.0,30.08,West,281,1.0,2.0,60,0.00,,,0.01,,2013-04-27 06:12:00,
2013-04-27 01:22:00,52.0,36.0,30.08,WNW,291,0.0,2.0,54,0.00,,,0.00,,2013-04-27 06:22:00,
2013-04-27 01:32:00,52.0,36.0,30.08,WNW,291,0.0,2.0,54,0.00,,,0.00,,2013-04-27 06:32:00,
2013-04-27 01:42:00,52.0,36.0,30.08,WNW,291,0.0,2.0,54,0.00,,,0.00,,2013-04-27 06:42:00,
2013-04-27 01:52:00,50.0,35.0,30.07,NW,324,1.0,2.0,56,0.00,,,0.00,,2013-04-27 06:52:00,
2013-04-27 02:01:00,48.0,37.0,30.08,NW,326,0.0,1.0,65,0.00,,,0.00,,2013-04-27 07:01:00,
2013-04-27 02:11:00,48.0,37.0,30.08,NW,326,0.0,1.0,65,0.00,,,0.00,,2013-04-27 07:11:00,
2013-04-27 02:21:00,47.0,38.0,30.08,NW,326,0.0,1.0,71,0.00,,,0.00,,2013-04-27 07:21:00,
2013-04-27 02:32:00,46.0,36.0,30.08,SSW,207,1.0,2.0,67,0.00,,,0.00,,2013-04-27 07:32:00,
2013-04-27 02:42:00,46.0,36.0,30.08,SSW,207,1.0,2.0,67,0.00,,,0.00,,2013-04-27 07:42:00,
2013-04-27 02:52:00,46.0,36.0,30.08,SSW,207,1.0,2.0,67,0.00,,,0.00,,2013-04-27 07:52:00,
2013-04-27 03:01:00,45.0,37.0,30.07,SSW,201,0.0,1.0,73,0.00,,,0.00,,2013-04-27 08:01:00,
2013-04-27 03:11:00,45.0,37.0,30.07,SSW,201,0.0,1.0,73,0.00,,,0.00,,2013-04-27 08:11:00,
2013-04-27 03:21:00,44.0,37.0,30.07,WSW,239,0.0,1.0,75,0.00,,,0.00,,2013-04-27 08:21:00,
2013-04-27 03:33:00,43.0,38.0,30.07,SSW,211,2.0,2.0,84,0.00,,,0.00,,2013-04-27 08:33:00,
2013-04-27 03:41:00,43.0,38.0,30.07,SSW,211,2.0,2.0,84,0.00,,,0.00,,2013-04-27 08:41:00,
2013-04-27 03:51:00,43.0,38.0,30.06,SSW,198,1.0,2.0,83,0.00,,,0.00,,2013-04-27 08:51:00,
2013-04-27 04:01:00,43.0,38.0,30.06,SSW,198,1.0,2.0,83,0.00,,,0.00,,2013-04-27 09:01:00,
2013-04-27 04:11:00,43.0,38.0,30.06,SSW,198,1.0,2.0,83,0.00,,,0.00,,2013-04-27 09:11:00,
2013-04-27 04:21:00,43.0,39.0,30.06,SW,236,0.0,1.0,85,0.00,,,0.00,,2013-04-27 09:21:00,
2013-04-27 04:33:00,43.0,38.0,30.06,WSW,255,0.0,1.0,81,0.00,,,0.00,,2013-04-27 09:33:00,
2013-04-27 04:42:00,43.0,38.0,30.06,WSW,255,0.0,1.0,81,0.00,,,0.00,,2013-04-27 09:42:00,
2013-04-27 04:53:00,42.0,36.0,30.06,NNW,342,0.0,2.0,79,0.00,,,0.00,,2013-04-27 09:53:00,
2013-04-27 05:02:00,42.0,37.0,30.06,SE,129,0.0,1.0,81,0.00,,,0.00,,2013-04-27 10:02:00,
2013-04-27 05:12:00,42.0,37.0,30.06,SE,129,0.0,1.0,81,0.00,,,0.00,,2013-04-27 10:12:00,
2013-04-27 05:22:00,42.0,37.0,30.06,SE,129,0.0,1.0,81,0.00,,,0.00,,2013-04-27 10:22:00,
2013-04-27 05:32:00,41.0,37.0,30.05,ESE,119,0.0,1.0,86,0.00,,,0.00,,2013-04-27 10:32:00,
2013-04-27 05:42:00,41.0,37.0,30.05,ESE,119,0.0,1.0,86,0.00,,,0.00,,2013-04-27 10:42:00,
2013-04-27 05:52:00,40.0,37.0,30.05,ESE,119,0.0,1.0,88,0.00,,,0.00,,2013-04-27 10:52:00,
2013-04-27 06:02:00,40.0,36.0,30.05,ESE,119,0.0,0.0,87,0.00,,,0.00,,2013-04-27 11:02:00,
2013-04-27 06:12:00,40.0,36.0,30.05,ESE,119,0.0,0.0,87,0.00,,,0.00,,2013-04-27 11:12:00,
2013-04-27 06:22:00,39.0,37.0,30.04,SE,127,1.0,3.0,91,0.00,,,0.00,,2013-04-27 11:22:00,
2013-04-27 06:32:00,41.0,37.0,30.04,SE,127,0.0,0.0,87,0.00,,,0.00,,2013-04-27 11:32:00,
2013-04-27 06:41:00,41.0,37.0,30.04,SE,127,0.0,0.0,87,0.00,,,0.00,,2013-04-27 11:41:00,
2013-04-27 06:52:00,41.0,37.0,30.04,SE,127,0.0,0.0,87,0.00,,,0.00,,2013-04-27 11:52:00,
2013-04-27 07:01:00,40.0,36.0,30.04,ESE,119,1.0,1.0,87,0.00,,,0.00,,2013-04-27 12:01:00,
2013-04-27 07:11:00,40.0,36.0,30.04,ESE,119,1.0,1.0,87,0.00,,,0.00,,2013-04-27 12:11:00,
2013-04-27 07:22:00,41.0,37.0,30.04,SE,138,2.0,3.0,87,0.00,,,0.00,,2013-04-27 12:22:00,
2013-04-27 07:32:00,44.0,39.0,30.04,ESE,115,0.0,1.0,83,0.00,,,0.00,,2013-04-27 12:32:00,
2013-04-27 07:42:00,44.0,39.0,30.04,ESE,115,0.0,1.0,83,0.00,,,0.00,,2013-04-27 12:42:00,
2013-04-27 07:52:00,46.0,40.0,30.04,ESE,107,0.0,1.0,79,0.00,,,0.00,,2013-04-27 12:52:00,
2013-04-27 08:02:00,46.0,40.0,30.04,ESE,107,0.0,1.0,79,0.00,,,0.00,,2013-04-27 13:02:00,
2013-04-27 08:11:00,46.0,40.0,30.04,ESE,107,0.0,1.0,79,0.00,,,0.00,,2013-04-27 13:11:00,
2013-04-27 08:21:00,45.0,39.0,30.05,NW,317,1.0,2.0,80,0.00,,,0.00,,2013-04-27 13:21:00,
2013-04-27 08:32:00,48.0,40.0,30.05,SW,228,0.0,1.0,75,0.00,,,0.00,,2013-04-27 13:32:00,
2013-04-27 08:42:00,48.0,40.0,30.05,SW,228,0.0,1.0,75,0.00,,,0.00,,2013-04-27 13:42:00,
2013-04-27 08:52:00,51.0,41.0,30.05,SSW,204,2.0,4.0,69,0.00,,,0.00,,2013-04-27 13:52:00,
2013-04-27 09:02:00,54.0,42.0,30.05,South,169,3.0,7.0,64,0.00,,,0.00,,2013-04-27 14:02:00,
2013-04-27 09:11:00,54.0,42.0,30.05,South,169,3.0,7.0,64,0.00,,,0.00,,2013-04-27 14:11:00,
2013-04-27 09:21:00,54.0,42.0,30.05,South,169,3.0,7.0,64,0.00,,,0.00,,2013-04-27 14:21:00,
2013-04-27 09:32:00,55.0,43.0,30.04,SSW,211,2.0,6.0,65,0.00,,,0.00,,2013-04-27 14:32:00,
2013-04-27 09:42:00,55.0,43.0,30.04,SSW,211,2.0,6.0,65,0.00,,,0.00,,2013-04-27 14:42:00,
2013-04-27 09:52:00,57.0,44.0,30.04,South,179,4.0,8.0,61,0.00,,,0.00,,2013-04-27 14:52:00,
2013-04-27 10:01:00,58.0,45.0,30.03,SE,145,4.0,8.0,63,0.00,,,0.00,,2013-04-27 15:01:00,
2013-04-27 10:12:00,58.0,45.0,30.03,SE,145,4.0,8.0,63,0.00,,,0.00,,2013-04-27 15:12:00,
2013-04-27 10:22:00,60.0,46.0,30.04,SSW,205,4.0,6.0,60,0.00,,,0.00,,2013-04-27 15:22:00,
2013-04-27 10:33:00,60.0,46.0,30.04,SSW,205,4.0,6.0,60,0.00,,,0.00,,2013-04-27 15:33:00,
2013-04-27 10:42:00,60.0,46.0,30.04,SSW,205,4.0,6.0,60,0.00,,,0.00,,2013-04-27 15:42:00,
2013-04-27 10:53:00,60.0,47.0,30.04,SSW,204,3.0,7.0,61,0.00,,,0.00,,2013-04-27 15:53:00,
2013-04-27 11:03:00,61.0,46.0,30.03,WSW,248,4.0,7.0,57,0.00,,,0.00,,2013-04-27 16:03:00,
2013-04-27 11:13:00,61.0,46.0,30.03,WSW,248,4.0,7.0,57,0.00,,,0.00,,2013-04-27 16:13:00,
2013-04-27 11:22:00,62.0,44.0,30.03,SW,231,1.0,5.0,52,0.00,,,0.00,,2013-04-27 16:22:00,
2013-04-27 11:32:00,64.0,45.0,30.03,West,267,1.0,3.0,50,0.00,,,0.00,,2013-04-27 16:32:00,
2013-04-27 11:42:00,64.0,45.0,30.03,West,267,1.0,3.0,50,0.00,,,0.00,,2013-04-27 16:42:00,
2013-04-27 11:52:00,65.0,45.0,30.03,East,89,1.0,3.0,48,0.00,,,0.00,,2013-04-27 16:52:00,
2013-04-27 12:02:00,65.0,45.0,30.03,East,89,1.0,3.0,48,0.00,,,0.00,,2013-04-27 17:02:00,
2013-04-27 12:12:00,65.0,45.0,30.03,East,89,1.0,3.0,48,0.00,,,0.00,,2013-04-27 17:12:00,
2013-04-27 12:22:00,65.0,44.0,30.03,West,262,2.0,5.0,46,0.00,,,0.00,,2013-04-27 17:22:00,
2013-04-27 12:32:00,65.0,41.0,30.02,NNW,343,2.0,6.0,42,0.00,,,0.00,,2013-04-27 17:32:00,
2013-04-27 12:42:00,65.0,41.0,30.02,NNW,343,2.0,6.0,42,0.00,,,0.00,,2013-04-27 17:42:00,
2013-04-27 12:52:00,67.0,41.0,30.01,NNE,22,2.0,5.0,39,0.00,,,0.00,,2013-04-27 17:52:00,
2013-04-27 13:02:00,68.0,41.0,30.00,SW,231,3.0,8.0,37,0.00,,,0.00,,2013-04-27 18:02:00,
2013-04-27 13:12:00,68.0,41.0,30.00,SW,231,3.0,8.0,37,0.00,,,0.00,,2013-04-27 18:12:00,
2013-04-27 13:22:00,68.0,41.0,30.00,SW,231,3.0,8.0,37,0.00,,,0.00,,2013-04-27 18:22:00,
2013-04-27 13:32:00,68.0,41.0,30.00,SSW,210,7.0,13.0,37,0.00,,,0.00,,2013-04-27 18:32:00,
2013-04-27 13:42:00,68.0,41.0,30.00,SSW,210,7.0,13.0,37,0.00,,,0.00,,2013-04-27 18:42:00,
2013-04-27 13:52:00,68.0,41.0,29.99,West,269,6.0,11.0,38,0.00,,,0.00,,2013-04-27 18:52:00,
2013-04-27 14:02:00,68.0,41.0,29.98,SE,134,5.0,14.0,37,0.00,,,0.00,,2013-04-27 19:02:00,
2013-04-27 14:11:00,68.0,41.0,29.98,SE,134,5.0,14.0,37,0.00,,,0.00,,2013-04-27 19:11:00,
2013-04-27 14:21:00,69.0,40.0,29.97,SSW,200,7.0,12.0,35,0.00,,,0.00,,2013-04-27 19:21:00,
2013-04-27 14:32:00,69.0,40.0,29.97,SSW,200,7.0,12.0,35,0.00,,,0.00,,2013-04-27 19:32:00,
2013-04-27 14:42:00,69.0,40.0,29.97,SSW,200,7.0,12.0,35,0.00,,,0.00,,2013-04-27 19:42:00,
2013-04-27 14:53:00,69.0,40.0,29.96,ESE,123,6.0,12.0,35,0.00,,,0.00,,2013-04-27 19:53:00,
2013-04-27 15:02:00,69.0,41.0,29.96,SSW,194,6.0,13.0,36,0.00,,,0.00,,2013-04-27 20:02:00,
2013-04-27 15:11:00,69.0,41.0,29.96,SSW,194,6.0,13.0,36,0.00,,,0.00,,2013-04-27 20:11:00,
2013-04-27 15:21:00,70.0,40.0,29.95,SSW,207,11.0,17.0,34,0.00,,,0.00,,2013-04-27 20:21:00,
2013-04-27 15:32:00,70.0,39.0,29.94,SSW,208,9.0,15.0,32,0.00,,,0.00,,2013-04-27 20:32:00,
2013-04-27 15:42:00,70.0,39.0,29.94,SSW,208,9.0,15.0,32,0.00,,,0.00,,2013-04-27 20:42:00,
2013-04-27 15:52:00,70.0,39.0,29.94,SSW,208,9.0,15.0,32,0.00,,,0.00,,2013-04-27 20:52:00,
2013-04-27 16:02:00,70.0,40.0,29.93,SW,226,10.0,17.0,34,0.00,,,0.00,,2013-04-27 21:02:00,
2013-04-27 16:11:00,70.0,40.0,29.93,SW,226,10.0,17.0,34,0.00,,,0.00,,2013-04-27 21:11:00,
2013-04-27 16:21:00,71.0,43.0,29.92,SSW,212,8.0,12.0,37,0.00,,,0.00,,2013-04-27 21:21:00,
2013-04-27 16:33:00,71.0,41.0,29.91,SSE,165,6.0,12.0,34,0.00,,,0.00,,2013-04-27 21:33:00,
2013-04-27 16:43:00,71.0,41.0,29.91,SSE,165,6.0,12.0,34,0.00,,,0.00,,2013-04-27 21:43:00,
2013-04-27 16:53:00,71.0,43.0,29.91,WSW,243,10.0,20.0,36,0.00,,,0.00,,2013-04-27 21:53:00,
2013-04-27 17:02:00,71.0,39.0,29.90,WSW,245,11.0,16.0,31,0.00,,,0.00,,2013-04-27 22:02:00,
2013-04-27 17:12:00,71.0,39.0,29.90,WSW,245,11.0,16.0,31,0.00,,,0.00,,2013-04-27 22:12:00,
2013-04-27 17:22:00,71.0,39.0,29.90,WSW,245,11.0,16.0,31,0.00,,,0.00,,2013-04-27 22:22:00,
2013-04-27 17:32:00,72.0,39.0,29.89,WSW,248,13.0,17.0,30,0.00,,,0.00,,2013-04-27 22:32:00,
2013-04-27 17:42:00,72.0,39.0,29.89,WSW,248,13.0,17.0,30,0.00,,,0.00,,2013-04-27 22:42:00,
2013-04-27 17:52:00,72.0,41.0,29.88,South,191,8.0,18.0,32,0.00,,,0.00,,2013-04-27 22:52:00,
2013-04-27 18:02:00,72.0,41.0,29.88,WSW,242,10.0,13.0,32,0.00,,,0.00,,2013-04-27 23:02:00,
2013-04-27 18:11:00,72.0,41.0,29.88,WSW,242,10.0,13.0,32,0.00,,,0.00,,2013-04-27 23:11:00,
2013-04-27 18:22:00,72.0,41.0,29.88,WSW,242,10.0,13.0,32,0.00,,,0.00,,2013-04-27 23:22:00,
2013-04-27 18:32:00,73.0,40.0,29.87,SSW,207,9.0,14.0,30,0.00,,,0.00,,2013-04-27 23:32:00,
2013-04-27 18:42:00,73.0,40.0,29.87,SSW,207,9.0,14.0,30,0.00,,,0.00,,2013-04-27 23:42:00,
2013-04-27 18:52:00,72.0,41.0,29.87,WSW,239,10.0,16.0,32,0.00,,,0.00,,2013-04-27 23:52:00,
2013-04-27 19:01:00,72.0,41.0,29.86,SSW,211,8.0,13.0,32,0.00,,,0.00,,2013-04-28 00:01:00,
2013-04-27 19:11:00,72.0,41.0,29.86,SSW,211,8.0,13.0,32,0.00,,,0.00,,2013-04-28 00:11:00,
2013-04-27 19:21:00,71.0,43.0,29.86,SSW,201,7.0,13.0,37,0.00,,,0.00,,2013-04-28 00:21:00,
2013-04-27 19:32:00,71.0,43.0,29.86,SSW,201,7.0,13.0,37,0.00,,,0.00,,2013-04-28 00:32:00,
2013-04-27 19:42:00,71.0,43.0,29.86,SSW,201,7.0,13.0,37,0.00,,,0.00,,2013-04-28 00:42:00,
2013-04-27 19:52:00,70.0,45.0,29.86,SSW,204,9.0,12.0,41,0.00,,,0.00,,2013-04-28 00:52:00,
2013-04-27 20:01:00,68.0,45.0,29.86,SW,214,10.0,12.0,44,0.00,,,0.00,,2013-04-28 01:01:00,
2013-04-27 20:11:00,68.0,45.0,29.86,SW,214,10.0,12.0,44,0.00,,,0.00,,2013-04-28 01:11:00,
2013-04-27 20:21:00,67.0,46.0,29.86,South,180,5.0,9.0,47,0.00,,,0.00,,2013-04-28 01:21:00,
2013-04-27 20:32:00,66.0,46.0,29.85,SW,229,4.0,12.0,49,0.00,,,0.00,,2013-04-28 01:32:00,
2013-04-27 20:42:00,66.0,46.0,29.85,SW,229,4.0,12.0,49,0.00,,,0.00,,2013-04-28 01:42:00,
2013-04-27 20:52:00,65.0,47.0,29.85,SSE,148,3.0,8.0,53,0.00,,,0.00,,2013-04-28 01:52:00,
2013-04-27 21:02:00,65.0,47.0,29.85,SSE,148,3.0,8.0,53,0.00,,,0.00,,2013-04-28 02:02:00,
2013-04-27 21:12:00,65.0,47.0,29.85,SSE,148,3.0,8.0,53,0.00,,,0.00,,2013-04-28 02:12:00,
2013-04-27 21:22:00,64.0,47.0,29.85,SSE,162,3.0,10.0,54,0.00,,,0.00,,2013-04-28 02:22:00,
2013-04-27 21:32:00,63.0,47.0,29.86,SSE,157,5.0,9.0,55,0.00,,,0.00,,2013-04-28 02:32:00,
2013-04-27 21:42:00,63.0,47.0,29.86,SSE,157,5.0,9.0,55,0.00,,,0.00,,2013-04-28 02:42:00,
2013-04-27 21:52:00,62.0,46.0,29.86,SSE,168,3.0,8.0,56,0.00,,,0.00,,2013-04-28 02:52:00,
2013-04-27 22:01:00,62.0,46.0,29.86,SSW,205,3.0,9.0,56,0.00,,,0.00,,2013-04-28 03:01:00,
2013-04-27 22:11:00,62.0,46.0,29.86,SSW,205,3.0,9.0,56,0.00,,,0.00,,2013-04-28 03:11:00,
2013-04-27 22:21:00,62.0,46.0,29.86,SSW,205,3.0,9.0,56,0.00,,,0.00,,2013-04-28 03:21:00,
2013-04-27 22:32:00,61.0,46.0,29.86,SSE,165,4.0,9.0,57,0.00,,,0.00,,2013-04-28 03:32:00,
2013-04-27 22:43:00,61.0,46.0,29.86,SSE,165,4.0,9.0,57,0.00,,,0.00,,2013-04-28 03:43:00,
2013-04-27 22:53:00,60.0,46.0,29.86,South,180,4.0,8.0,59,0.00,,,0.00,,2013-04-28 03:53:00,
2013-04-27 23:02:00,60.0,47.0,29.85,SSE,153,8.0,11.0,61,0.00,,,0.00,,2013-04-28 04:02:00,
2013-04-27 23:13:00,60.0,47.0,29.85,SSE,153,8.0,11.0,61,0.00,,,0.00,,2013-04-28 04:13:00,
2013-04-27 23:22:00,59.0,47.0,29.85,SE,145,7.0,13.0,64,0.00,,,0.00,,2013-04-28 04:22:00,
2013-04-27 23:32:00,58.0,47.0,29.85,ESE,111,7.0,12.0,66,0.00,,,0.00,,2013-04-28 04:32:00,
2013-04-27 23:42:00,58.0,47.0,29.85,ESE,111,7.0,12.0,66,0.00,,,0.00,,2013-04-28 04:42:00,
2013-04-27 23:53:00,58.0,47.0,29.85,ESE,111,7.0,12.0,66,0.00,,,0.00,,2013-04-28 04:53:00,